Starlink 3821

operational
NORAD ID: 52357 Int'l Des: 2022-045 Owner: SPXS Country: US Constellation: starlink
LEOCIRCULAR

Über Starlink 3821

Beschreibung wird geladen...

Live-Position

3D-Globus wird geladen...

Nächste Überflüge

Höhenverlauf

Altitude vs Time

uPlot chart will show altitude changes over time

Zweizeiliger Elementsatz

1 52357U 22045AC 25352.80245279 .00000657 00000-0 59375-4 0 9990
2 52357 53.2161 202.2373 0001335 90.3186 269.7959 15.08844139203577
Epoch: 18. Dez. 2025 • Age: 10 hours

Aktueller Status

Höhe 540.6 km
Geschwindigkeit 7.60 km/s
Subsatellitenpunkt 28.08°N, 172.6°W
Startdatum 29. Apr. 2022
Alter 3.6 years
Typ internet

Technische Details

Klassifizierung Payload
Masse 297.00 kg
Trockenmasse 275.00 kg
Gesamtmasse 297.00 kg
Länge 0.20 m
Durchmesser 2.80 m
Spannweite 9.00 m
Form Box + pan
Hersteller SPXS
Bus-Typ Starlink
Phasenstatus In Orbit
Besitzer/Staat SPXS/US

Große Konstellationen

Loading constellations...